Weather History for Jerome, ID

Change the Weather History Date:

Saturday, November 9, 2013

  Actual Average Record
Temperature  
Mean Temperature 41 °F 40 °F  
Max Temperature 57 °F 49 °F 70 °F (1954)
Min Temperature 25 °F 30 °F 14 °F (1950)
Degree Days  
Heating Degree Days 24 25  
Month to date heating degree days 222 213  
Since 1 July heating degree days 913 912  
Cooling Degree Days 0 0  
Month to date cooling degree days 0 0  
Year to date cooling degree days 904 510  
Moisture  
Dew Point 27 °F    
Average Humidity 64    
Maximum Humidity 92    
Minimum Humidity 35    
Precipitation  
Precipitation 0.00 in 0.03 in 0.37 in (1970)
Month to date precipitation 0.04 0.28  
Year to date precipitation 3.14 8.38  
Sea Level Pressure  
Sea Level Pressure 30.20 in    
Wind  
Wind Speed 6 mph (ENE)    
Max Wind Speed 14 mph    
Max Gust Speed 15 mph    
Visibility 10 miles    
Events      
T = Trace of Precipitation, MM = Missing Value Source: NWS Daily Summary

Daily Weather History Graph

Daily Weather History Graph

Search for Another Location

Airport:

Trip Planner

Search our weather history database for the weather conditions in past years. The results will help you decide how hot, cold, wet, or windy it might be!

Date:

Astronomy

Nov. 09, 2013 Rise Set
Actual Time 7:22 AM MST 5:20 PM MST
Civil Twilight 6:52 AM MST 5:50 PM MST
Nautical Twilight 6:18 AM MST 6:24 PM MST
Astronomical Twilight 5:45 AM MST 6:57 PM MST
Moon 1:00 PM MST (11/9) 11:57 PM MST (11/9)
Length of Visible Light 10h 58m
Length of Day
9h 58m
Waxing Crescent, 45% of the Moon is Illuminated
Nov 9
Waxing Crescent
Nov 9
First Quarter
Nov 17
Full
Nov 25
Last Quarter
Dec 2
New

Hourly Weather History & Observations

Time (MST) Temp. Windchill Dew Point Humidity Pressure Visibility Wind Dir Wind Speed Gust Speed Precip Events Conditions
12:53 AM 32.0 °F 26.4 °F 24.1 °F 73% 30.17 in 10.0 mi SSE 5.8 mph - N/A   Clear
1:53 AM 33.1 °F 30.0 °F 25.0 °F 72% 30.17 in 10.0 mi South 3.5 mph - N/A   Clear
2:53 AM 30.9 °F 27.5 °F 24.1 °F 76% 30.16 in 10.0 mi South 3.5 mph - N/A   Clear
3:53 AM 30.0 °F - 24.1 °F 79% 30.18 in 10.0 mi Calm Calm - N/A   Clear
4:53 AM 28.9 °F - 25.0 °F 85% 30.19 in 10.0 mi Calm Calm - N/A   Clear
5:53 AM 28.0 °F 22.8 °F 24.1 °F 85% 30.21 in 10.0 mi East 4.6 mph - N/A   Clear
6:53 AM 27.0 °F 21.6 °F 24.1 °F 89% 30.23 in 10.0 mi East 4.6 mph - N/A   Partly Cloudy
7:53 AM 28.9 °F 21.1 °F 25.0 °F 85% 30.24 in 10.0 mi East 8.1 mph - N/A   Clear
8:53 AM 39.0 °F 35.7 °F 30.0 °F 70% 30.24 in 10.0 mi ENE 4.6 mph - N/A   Clear
9:53 AM 43.0 °F 38.8 °F 28.9 °F 58% 30.23 in 10.0 mi NE 6.9 mph - N/A   Clear
10:53 AM 46.0 °F 41.9 °F 28.9 °F 51% 30.23 in 10.0 mi NNE 8.1 mph - N/A   Clear
11:53 AM 48.9 °F - 28.0 °F 44% 30.22 in 10.0 mi NE 6.9 mph - N/A   Clear
12:53 PM 52.0 °F - 28.0 °F 40% 30.19 in 10.0 mi NNE 5.8 mph - N/A   Clear
1:53 PM 54.0 °F - 28.9 °F 38% 30.17 in 10.0 mi ESE 4.6 mph - N/A   Clear
2:53 PM 55.0 °F - 28.9 °F 37% 30.17 in 10.0 mi Calm Calm - N/A   Clear
3:53 PM 57.0 °F - 30.0 °F 36% 30.16 in 10.0 mi ENE 3.5 mph - N/A   Clear
4:53 PM 53.1 °F - 30.9 °F 43% 30.18 in 10.0 mi NNE 5.8 mph - N/A   Clear
5:53 PM 43.0 °F 38.2 °F 28.9 °F 58% 30.21 in 10.0 mi NE 8.1 mph - N/A   Clear
6:53 PM 43.0 °F 37.2 °F 30.0 °F 60% 30.22 in 10.0 mi ENE 10.4 mph - N/A   Clear
7:53 PM 45.0 °F 40.1 °F 28.9 °F 53% 30.22 in 10.0 mi East 9.2 mph - N/A   Clear
8:53 PM 45.0 °F 39.7 °F 28.0 °F 52% 30.20 in 10.0 mi East 10.4 mph - N/A   Clear
9:53 PM 43.0 °F 37.2 °F 28.0 °F 56% 30.21 in 10.0 mi East 10.4 mph - N/A   Clear
10:53 PM 45.0 °F 39.7 °F 28.9 °F 53% 30.19 in 10.0 mi ENE 10.4 mph - N/A   Clear
11:53 PM 37.9 °F 30.5 °F 28.0 °F 68% 30.21 in 10.0 mi NE 11.5 mph - N/A   Clear